Time,TemperatureF,DewpointF,PressureIn,WindDirection,WindDirectionDegrees,WindSpeedMPH,WindSpeedGustMPH,Humidity,HourlyPrecipIn,Conditions,Clouds,dailyrainin,SoftwareType,DateUTC
2013-02-06 00:02:00,32.2,17.0,29.73,North,0,0.0,0.0,53,0.00,,SKC,0.00,VWS V13.00,2013-02-06 07:02:00,
2013-02-06 00:07:00,31.8,17.1,29.73,North,0,0.0,0.0,54,0.00,,SKC,0.00,VWS V13.00,2013-02-06 07:07:00,
2013-02-06 00:12:00,31.6,16.9,29.73,North,0,0.0,0.0,54,0.00,,SKC,0.00,VWS V13.00,2013-02-06 07:12:00,
2013-02-06 00:17:00,31.5,16.8,29.73,North,0,0.0,0.0,54,0.00,,SKC,0.00,VWS V13.00,2013-02-06 07:17:00,
2013-02-06 00:22:00,31.5,16.3,29.73,North,0,0.0,0.0,53,0.00,,SKC,0.00,VWS V13.00,2013-02-06 07:22:00,
2013-02-06 00:27:00,31.6,16.9,29.73,North,0,0.0,0.0,54,0.00,,SKC,0.00,VWS V13.00,2013-02-06 07:27:00,
2013-02-06 00:32:00,31.3,16.1,29.73,North,0,0.0,0.0,53,0.00,,SKC,0.00,VWS V13.00,2013-02-06 07:32:00,
2013-02-06 00:37:00,31.1,16.0,29.73,North,0,0.0,0.0,53,0.00,,SKC,0.00,VWS V13.00,2013-02-06 07:37:00,
2013-02-06 00:42:00,30.9,15.8,29.73,North,0,0.0,0.0,53,0.00,,SKC,0.00,VWS V13.00,2013-02-06 07:42:00,
2013-02-06 00:47:00,30.9,15.8,29.73,North,0,0.0,0.0,53,0.00,,SKC,0.00,VWS V13.00,2013-02-06 07:47:00,
2013-02-06 00:52:00,30.7,16.1,29.73,North,0,0.0,0.0,54,0.00,,SKC,0.00,VWS V13.00,2013-02-06 07:52:00,
2013-02-06 00:57:00,30.7,15.6,29.73,North,0,0.0,0.0,53,0.00,,SKC,0.00,VWS V13.00,2013-02-06 07:57:00,
2013-02-06 01:02:00,30.7,16.1,29.73,North,0,0.0,0.0,54,0.00,,SKC,0.00,VWS V13.00,2013-02-06 08:02:00,
2013-02-06 01:07:00,30.6,15.9,29.73,North,0,0.0,0.0,54,0.00,,SKC,0.00,VWS V13.00,2013-02-06 08:07:00,
2013-02-06 01:12:00,30.6,15.5,29.73,North,0,0.0,0.0,53,0.00,,SKC,0.00,VWS V13.00,2013-02-06 08:12:00,
2013-02-06 01:17:00,30.7,15.6,29.73,North,0,0.0,0.0,53,0.00,,SKC,0.00,VWS V13.00,2013-02-06 08:17:00,
2013-02-06 01:22:00,30.9,15.8,29.73,North,0,0.0,0.0,53,0.00,,SKC,0.00,VWS V13.00,2013-02-06 08:22:00,
2013-02-06 01:27:00,30.9,15.8,29.70,North,0,0.0,0.0,53,0.00,,SKC,0.00,VWS V13.00,2013-02-06 08:27:00,
2013-02-06 01:32:00,30.9,16.2,29.70,North,0,0.0,0.0,54,0.00,,SKC,0.00,VWS V13.00,2013-02-06 08:32:00,
2013-02-06 01:38:00,30.9,16.2,29.70,North,0,0.0,0.0,54,0.00,,SKC,0.00,VWS V13.00,2013-02-06 08:38:00,
2013-02-06 01:43:00,30.7,16.1,29.73,North,0,0.0,0.0,54,0.00,,SKC,0.00,VWS V13.00,2013-02-06 08:43:00,
2013-02-06 01:48:00,30.7,16.1,29.73,North,0,0.0,0.0,54,0.00,,SKC,0.00,VWS V13.00,2013-02-06 08:48:00,
2013-02-06 01:53:00,30.6,15.9,29.73,North,0,0.0,0.0,54,0.00,,SKC,0.00,VWS V13.00,2013-02-06 08:53:00,
2013-02-06 01:58:00,30.7,16.1,29.73,North,0,0.0,0.0,54,0.00,,SKC,0.00,VWS V13.00,2013-02-06 08:58:00,
2013-02-06 02:04:00,31.3,15.7,29.73,North,0,0.0,0.0,52,0.00,,SKC,0.00,VWS V13.00,2013-02-06 09:04:00,
2013-02-06 02:09:00,31.8,15.8,29.73,North,0,0.0,0.0,51,0.00,,SKC,0.00,VWS V13.00,2013-02-06 09:09:00,
2013-02-06 02:14:00,32.2,15.6,29.73,North,0,0.0,0.0,50,0.00,,SKC,0.00,VWS V13.00,2013-02-06 09:14:00,
2013-02-06 02:20:00,32.2,14.7,29.73,North,0,0.0,0.0,48,0.00,,SKC,0.00,VWS V13.00,2013-02-06 09:20:00,
2013-02-06 02:25:00,32.4,13.9,29.73,North,0,0.0,0.0,46,0.00,,SKC,0.00,VWS V13.00,2013-02-06 09:25:00,
2013-02-06 02:30:00,32.5,14.1,29.73,North,0,0.0,0.0,46,0.00,,SKC,0.00,VWS V13.00,2013-02-06 09:30:00,
2013-02-06 02:35:00,32.5,14.6,29.73,North,0,0.0,0.0,47,0.00,,SKC,0.00,VWS V13.00,2013-02-06 09:35:00,
2013-02-06 02:40:00,32.2,14.7,29.73,North,0,0.0,0.0,48,0.00,,SKC,0.00,VWS V13.00,2013-02-06 09:40:00,
2013-02-06 02:45:00,31.8,15.3,29.73,North,0,0.0,0.0,50,0.00,,SKC,0.00,VWS V13.00,2013-02-06 09:45:00,
2013-02-06 02:50:00,31.5,15.0,29.73,North,0,0.0,0.0,50,0.00,,SKC,0.00,VWS V13.00,2013-02-06 09:50:00,
2013-02-06 02:55:00,31.3,14.8,29.73,North,0,0.0,0.0,50,0.00,,SKC,0.00,VWS V13.00,2013-02-06 09:55:00,
2013-02-06 03:00:00,30.9,14.5,29.73,North,0,0.0,0.0,50,0.00,,SKC,0.00,VWS V13.00,2013-02-06 10:00:00,
2013-02-06 03:05:00,30.6,14.6,29.73,North,0,0.0,0.0,51,0.00,,SKC,0.00,VWS V13.00,2013-02-06 10:05:00,
2013-02-06 03:10:00,30.4,14.4,29.73,North,0,0.0,0.0,51,0.00,,SKC,0.00,VWS V13.00,2013-02-06 10:10:00,
2013-02-06 03:15:00,30.4,14.9,29.73,North,0,0.0,0.0,52,0.00,,SKC,0.00,VWS V13.00,2013-02-06 10:15:00,
2013-02-06 03:20:00,30.6,15.0,29.73,North,0,0.0,0.0,52,0.00,,SKC,0.00,VWS V13.00,2013-02-06 10:20:00,
2013-02-06 03:25:00,30.7,15.2,29.73,North,0,0.0,0.0,52,0.00,,SKC,0.00,VWS V13.00,2013-02-06 10:25:00,
2013-02-06 03:30:00,31.1,15.5,29.73,North,0,0.0,0.0,52,0.00,,SKC,0.00,VWS V13.00,2013-02-06 10:30:00,
2013-02-06 03:35:00,31.8,15.8,29.73,North,0,0.0,0.0,51,0.00,,SKC,0.00,VWS V13.00,2013-02-06 10:35:00,
2013-02-06 03:40:00,32.2,15.6,29.73,North,0,0.0,0.0,50,0.00,,SKC,0.00,VWS V13.00,2013-02-06 10:40:00,
2013-02-06 03:46:00,32.5,15.5,29.73,North,0,0.0,0.0,49,0.00,,SKC,0.00,VWS V13.00,2013-02-06 10:46:00,
2013-02-06 03:51:00,32.7,15.7,29.73,North,0,0.0,0.0,49,0.00,,SKC,0.00,VWS V13.00,2013-02-06 10:51:00,
2013-02-06 03:56:00,32.9,15.9,29.73,North,0,0.0,0.0,49,0.00,,SKC,0.00,VWS V13.00,2013-02-06 10:56:00,
2013-02-06 04:01:00,32.9,15.4,29.73,North,0,0.0,0.0,48,0.00,,SKC,0.00,VWS V13.00,2013-02-06 11:01:00,
2013-02-06 04:06:00,33.1,16.0,29.73,North,0,0.0,0.0,49,0.00,,SKC,0.00,VWS V13.00,2013-02-06 11:06:00,
2013-02-06 04:11:00,33.1,15.1,29.73,North,0,0.0,0.0,47,0.00,,SKC,0.00,VWS V13.00,2013-02-06 11:11:00,
2013-02-06 04:16:00,32.9,15.4,29.73,North,0,0.0,0.0,48,0.00,,SKC,0.00,VWS V13.00,2013-02-06 11:16:00,
2013-02-06 04:21:00,32.7,15.7,29.73,North,0,0.0,0.0,49,0.00,,SKC,0.00,VWS V13.00,2013-02-06 11:21:00,
2013-02-06 04:26:00,32.7,14.7,29.73,North,0,0.0,0.0,47,0.00,,SKC,0.00,VWS V13.00,2013-02-06 11:26:00,
2013-02-06 04:31:00,32.7,14.2,29.73,North,0,0.0,0.0,46,0.00,,SKC,0.00,VWS V13.00,2013-02-06 11:31:00,
2013-02-06 04:36:00,32.5,14.6,29.73,North,0,0.0,0.0,47,0.00,,SKC,0.00,VWS V13.00,2013-02-06 11:36:00,
2013-02-06 04:41:00,32.5,14.1,29.73,North,0,0.0,0.0,46,0.00,,SKC,0.00,VWS V13.00,2013-02-06 11:41:00,
2013-02-06 04:46:00,32.7,13.7,29.73,North,0,0.0,0.0,45,0.00,,SKC,0.00,VWS V13.00,2013-02-06 11:46:00,
2013-02-06 04:51:00,32.9,13.9,29.73,North,0,0.0,0.0,45,0.00,,SKC,0.00,VWS V13.00,2013-02-06 11:51:00,
2013-02-06 04:56:00,33.1,14.1,29.73,North,0,0.0,0.0,45,0.00,,SKC,0.00,VWS V13.00,2013-02-06 11:56:00,
2013-02-06 05:02:00,33.3,14.2,29.73,North,0,0.0,0.0,45,0.00,,SKC,0.00,VWS V13.00,2013-02-06 12:02:00,
2013-02-06 05:07:00,33.4,13.9,29.73,North,0,0.0,0.0,44,0.00,,SKC,0.00,VWS V13.00,2013-02-06 12:07:00,
2013-02-06 05:12:00,33.4,13.9,29.76,North,0,0.0,0.0,44,0.00,,SKC,0.00,VWS V13.00,2013-02-06 12:12:00,
2013-02-06 05:17:00,33.6,14.1,29.76,North,0,0.0,0.0,44,0.00,,SKC,0.00,VWS V13.00,2013-02-06 12:17:00,
2013-02-06 05:22:00,33.8,13.7,29.76,North,0,0.0,0.0,43,0.00,,SKC,0.00,VWS V13.00,2013-02-06 12:22:00,
2013-02-06 05:27:00,34.0,13.9,29.76,North,0,0.0,0.0,43,0.00,,SKC,0.00,VWS V13.00,2013-02-06 12:27:00,
2013-02-06 05:32:00,33.8,13.7,29.76,North,0,0.0,0.0,43,0.00,,SKC,0.00,VWS V13.00,2013-02-06 12:32:00,
2013-02-06 05:37:00,34.0,13.9,29.76,North,0,0.0,0.0,43,0.00,,SKC,0.00,VWS V13.00,2013-02-06 12:37:00,
2013-02-06 05:42:00,34.0,13.9,29.76,North,0,0.0,0.0,43,0.00,,SKC,0.00,VWS V13.00,2013-02-06 12:42:00,
2013-02-06 05:47:00,34.0,13.9,29.76,North,0,0.0,0.0,43,0.00,,SKC,0.00,VWS V13.00,2013-02-06 12:47:00,
2013-02-06 05:52:00,34.0,13.9,29.76,North,0,0.0,0.0,43,0.00,,SKC,0.00,VWS V13.00,2013-02-06 12:52:00,
2013-02-06 05:57:00,33.8,14.7,29.76,North,0,0.0,0.0,45,0.00,,SKC,0.00,VWS V13.00,2013-02-06 12:57:00,
2013-02-06 06:02:00,33.6,15.6,29.76,North,0,0.0,0.0,47,0.00,,SKC,0.00,VWS V13.00,2013-02-06 13:02:00,
2013-02-06 06:07:00,33.6,16.5,29.76,North,0,0.0,0.0,49,0.00,,SKC,0.00,VWS V13.00,2013-02-06 13:07:00,
2013-02-06 06:12:00,33.8,16.7,29.76,North,0,0.0,0.0,49,0.00,,SKC,0.00,VWS V13.00,2013-02-06 13:12:00,
2013-02-06 06:17:00,33.8,15.7,29.76,North,0,0.0,0.0,47,0.00,,SKC,0.00,VWS V13.00,2013-02-06 13:17:00,
2013-02-06 06:22:00,34.0,16.4,29.76,North,0,0.0,0.0,48,0.00,,SKC,0.00,VWS V13.00,2013-02-06 13:22:00,
2013-02-06 06:27:00,34.2,16.0,29.76,North,0,0.0,0.0,47,0.00,,SKC,0.00,VWS V13.00,2013-02-06 13:27:00,
2013-02-06 06:33:00,34.3,16.2,29.76,North,0,0.0,0.0,47,0.00,,SKC,0.00,VWS V13.00,2013-02-06 13:33:00,
2013-02-06 06:38:00,34.3,16.7,29.76,North,0,0.0,0.0,48,0.00,,SKC,0.00,VWS V13.00,2013-02-06 13:38:00,
2013-02-06 06:43:00,34.2,15.6,29.76,North,0,0.0,0.0,46,0.00,,SKC,0.00,VWS V13.00,2013-02-06 13:43:00,
2013-02-06 06:48:00,34.2,16.0,29.76,North,0,0.0,0.0,47,0.00,,SKC,0.00,VWS V13.00,2013-02-06 13:48:00,
2013-02-06 06:53:00,34.2,15.6,29.76,North,0,0.0,0.0,46,0.00,,SKC,0.00,VWS V13.00,2013-02-06 13:53:00,
2013-02-06 06:58:00,34.0,15.4,29.76,North,0,0.0,0.0,46,0.00,,SKC,0.00,VWS V13.00,2013-02-06 13:58:00,
2013-02-06 07:03:00,34.2,16.0,29.76,North,0,0.0,0.0,47,0.00,,SKC,0.00,VWS V13.00,2013-02-06 14:03:00,
2013-02-06 07:08:00,34.0,15.4,29.76,North,0,0.0,0.0,46,0.00,,SKC,0.00,VWS V13.00,2013-02-06 14:08:00,
2013-02-06 07:13:00,33.8,14.7,29.79,North,0,0.0,0.0,45,0.00,,SKC,0.00,VWS V13.00,2013-02-06 14:13:00,
2013-02-06 07:18:00,33.6,15.6,29.79,North,0,0.0,0.0,47,0.00,,SKC,0.00,VWS V13.00,2013-02-06 14:18:00,
2013-02-06 07:23:00,33.6,16.0,29.79,North,0,0.0,0.0,48,0.00,,SKC,0.00,VWS V13.00,2013-02-06 14:23:00,
2013-02-06 07:28:00,33.4,16.8,29.79,North,0,0.0,0.0,50,0.00,,SKC,0.00,VWS V13.00,2013-02-06 14:28:00,
2013-02-06 07:33:00,33.4,16.8,29.79,North,0,0.0,0.0,50,0.00,,SKC,0.00,VWS V13.00,2013-02-06 14:33:00,
2013-02-06 07:38:00,33.3,17.1,29.79,North,0,0.0,0.0,51,0.00,,SKC,0.00,VWS V13.00,2013-02-06 14:38:00,
2013-02-06 07:43:00,33.3,17.1,29.79,North,0,0.0,0.0,51,0.00,,SKC,0.00,VWS V13.00,2013-02-06 14:43:00,
2013-02-06 07:48:00,33.1,16.9,29.79,North,0,0.0,0.0,51,0.00,,SKC,0.00,VWS V13.00,2013-02-06 14:48:00,
2013-02-06 07:53:00,33.1,17.4,29.79,North,0,0.0,0.0,52,0.00,,SKC,0.00,VWS V13.00,2013-02-06 14:53:00,
2013-02-06 07:58:00,32.9,15.9,29.79,North,0,0.0,0.0,49,0.00,,SKC,0.00,VWS V13.00,2013-02-06 14:58:00,
2013-02-06 08:03:00,32.9,16.8,29.79,North,0,0.0,0.0,51,0.00,,SKC,0.00,VWS V13.00,2013-02-06 15:03:00,
2013-02-06 08:08:00,32.7,17.0,29.79,North,0,0.0,0.0,52,0.00,,SKC,0.00,VWS V13.00,2013-02-06 15:08:00,
2013-02-06 08:13:00,32.7,15.7,29.79,North,0,0.0,0.0,49,0.00,,SKC,0.00,VWS V13.00,2013-02-06 15:13:00,
2013-02-06 08:19:00,32.9,16.3,29.79,North,0,0.0,0.0,50,0.00,,SKC,0.00,VWS V13.00,2013-02-06 15:19:00,
2013-02-06 08:24:00,32.7,17.0,29.79,North,0,0.0,0.0,52,0.00,,SKC,0.00,VWS V13.00,2013-02-06 15:24:00,
2013-02-06 08:29:00,32.7,17.0,29.79,North,0,0.0,0.0,52,0.00,,SKC,0.00,VWS V13.00,2013-02-06 15:29:00,
2013-02-06 08:34:00,32.7,17.5,29.79,North,0,0.0,0.0,53,0.00,,SKC,0.00,VWS V13.00,2013-02-06 15:34:00,
2013-02-06 08:39:00,32.7,17.5,29.79,North,0,0.0,0.0,53,0.00,,SKC,0.00,VWS V13.00,2013-02-06 15:39:00,
2013-02-06 08:44:00,32.9,17.7,29.79,North,0,0.0,0.0,53,0.00,,SKC,0.00,VWS V13.00,2013-02-06 15:44:00,
2013-02-06 08:49:00,33.1,18.3,29.79,North,0,0.0,0.0,54,0.00,,SKC,0.00,VWS V13.00,2013-02-06 15:49:00,
2013-02-06 08:54:00,33.1,18.3,29.79,North,0,0.0,0.0,54,0.00,,SKC,0.00,VWS V13.00,2013-02-06 15:54:00,
2013-02-06 08:59:00,33.3,18.4,29.79,North,0,0.0,0.0,54,0.00,,SKC,0.00,VWS V13.00,2013-02-06 15:59:00,
2013-02-06 09:04:00,33.3,18.9,29.79,North,0,0.0,0.0,55,0.00,,SKC,0.00,VWS V13.00,2013-02-06 16:04:00,
2013-02-06 09:09:00,33.3,18.9,29.79,North,0,0.0,0.0,55,0.00,,SKC,0.00,VWS V13.00,2013-02-06 16:09:00,
2013-02-06 09:14:00,33.3,18.9,29.82,North,0,0.0,0.0,55,0.00,,SKC,0.00,VWS V13.00,2013-02-06 16:14:00,
2013-02-06 09:19:00,33.6,19.2,29.82,North,0,0.0,0.0,55,0.00,,SKC,0.00,VWS V13.00,2013-02-06 16:19:00,
2013-02-06 09:24:00,34.0,19.5,29.82,North,0,0.0,0.0,55,0.00,,SKC,0.00,VWS V13.00,2013-02-06 16:24:00,
2013-02-06 09:29:00,34.3,19.9,29.82,North,0,0.0,0.0,55,0.00,,SKC,0.00,VWS V13.00,2013-02-06 16:29:00,
2013-02-06 09:34:00,34.7,18.4,29.82,North,0,0.0,0.0,51,0.00,,SKC,0.00,VWS V13.00,2013-02-06 16:34:00,
2013-02-06 09:39:00,35.1,16.9,29.82,North,0,0.0,0.0,47,0.00,,SKC,0.00,VWS V13.00,2013-02-06 16:39:00,
2013-02-06 09:44:00,35.6,16.9,29.82,North,0,0.0,0.0,46,0.00,,SKC,0.00,VWS V13.00,2013-02-06 16:44:00,
2013-02-06 09:49:00,36.0,16.7,29.82,North,0,0.0,0.0,45,0.00,,SKC,0.00,VWS V13.00,2013-02-06 16:49:00,
2013-02-06 09:54:00,36.1,16.9,29.82,North,0,0.0,0.0,45,0.00,,SKC,0.00,VWS V13.00,2013-02-06 16:54:00,
2013-02-06 09:59:00,36.0,16.2,29.82,North,0,0.0,0.0,44,0.00,,SKC,0.00,VWS V13.00,2013-02-06 16:59:00,
2013-02-06 10:04:00,35.6,15.9,29.82,North,0,0.0,0.0,44,0.00,,SKC,0.00,VWS V13.00,2013-02-06 17:04:00,
2013-02-06 10:09:00,35.2,15.5,29.82,North,0,0.0,0.0,44,0.00,,SKC,0.00,VWS V13.00,2013-02-06 17:09:00,
2013-02-06 10:14:00,35.4,15.7,29.82,North,0,0.0,0.0,44,0.00,,SKC,0.00,VWS V13.00,2013-02-06 17:14:00,
2013-02-06 10:19:00,35.6,15.3,29.82,North,0,0.0,0.0,43,0.00,,SKC,0.00,VWS V13.00,2013-02-06 17:19:00,
2013-02-06 10:24:00,35.6,15.3,29.82,North,0,0.0,0.0,43,0.00,,SKC,0.00,VWS V13.00,2013-02-06 17:24:00,
2013-02-06 10:29:00,35.6,15.9,29.82,North,0,0.0,0.0,44,0.00,,SKC,0.00,VWS V13.00,2013-02-06 17:29:00,
2013-02-06 10:34:00,35.4,15.7,29.82,North,0,0.0,0.0,44,0.00,,SKC,0.00,VWS V13.00,2013-02-06 17:34:00,
2013-02-06 10:39:00,35.6,15.9,29.82,North,0,0.0,0.0,44,0.00,,SKC,0.00,VWS V13.00,2013-02-06 17:39:00,
2013-02-06 10:44:00,36.0,15.6,29.82,North,0,0.0,0.0,43,0.00,,SKC,0.00,VWS V13.00,2013-02-06 17:44:00,
2013-02-06 10:49:00,36.1,15.8,29.82,North,0,0.0,0.0,43,0.00,,SKC,0.00,VWS V13.00,2013-02-06 17:49:00,
2013-02-06 10:55:00,36.3,16.0,29.82,North,0,0.0,0.0,43,0.00,,SKC,0.00,VWS V13.00,2013-02-06 17:55:00,
2013-02-06 11:00:00,36.3,15.4,29.82,North,0,0.0,0.0,42,0.00,,SKC,0.00,VWS V13.00,2013-02-06 18:00:00,
2013-02-06 11:05:00,36.3,15.4,29.82,North,0,0.0,0.0,42,0.00,,SKC,0.00,VWS V13.00,2013-02-06 18:05:00,
2013-02-06 11:10:00,35.8,14.9,29.82,North,0,0.0,0.0,42,0.00,,SKC,0.00,VWS V13.00,2013-02-06 18:10:00,
2013-02-06 11:15:00,35.8,15.5,29.82,North,0,0.0,0.0,43,0.00,,SKC,0.00,VWS V13.00,2013-02-06 18:15:00,
2013-02-06 11:20:00,35.8,15.5,29.82,North,0,0.0,0.0,43,0.00,,SKC,0.00,VWS V13.00,2013-02-06 18:20:00,
2013-02-06 11:25:00,35.6,15.3,29.82,North,0,0.0,0.0,43,0.00,,SKC,0.00,VWS V13.00,2013-02-06 18:25:00,
2013-02-06 11:30:00,35.6,15.3,29.85,North,0,0.0,0.0,43,0.00,,SKC,0.00,VWS V13.00,2013-02-06 18:30:00,
2013-02-06 11:35:00,35.6,15.3,29.85,North,0,0.0,0.0,43,0.00,,SKC,0.00,VWS V13.00,2013-02-06 18:35:00,
2013-02-06 11:40:00,35.6,15.3,29.85,North,0,0.0,0.0,43,0.00,,SKC,0.00,VWS V13.00,2013-02-06 18:40:00,
2013-02-06 11:45:00,35.6,15.3,29.85,North,0,0.0,0.0,43,0.00,,SKC,0.00,VWS V13.00,2013-02-06 18:45:00,
2013-02-06 11:50:00,35.4,15.2,29.85,North,0,0.0,0.0,43,0.00,,SKC,0.00,VWS V13.00,2013-02-06 18:50:00,
2013-02-06 11:55:00,35.4,15.2,29.85,North,0,0.0,0.0,43,0.00,,SKC,0.00,VWS V13.00,2013-02-06 18:55:00,
2013-02-06 12:00:00,35.6,15.3,29.82,North,0,0.0,0.0,43,0.00,,SKC,0.00,VWS V13.00,2013-02-06 19:00:00,
2013-02-06 12:05:00,35.6,14.8,29.82,North,0,0.0,0.0,42,0.00,,SKC,0.00,VWS V13.00,2013-02-06 19:05:00,
2013-02-06 12:10:00,35.8,15.5,29.82,North,0,0.0,0.0,43,0.00,,SKC,0.00,VWS V13.00,2013-02-06 19:10:00,
2013-02-06 12:15:00,35.8,15.5,29.85,North,0,0.0,0.0,43,0.00,,SKC,0.00,VWS V13.00,2013-02-06 19:15:00,
2013-02-06 12:20:00,35.8,15.5,29.85,North,0,0.0,0.0,43,0.00,,SKC,0.00,VWS V13.00,2013-02-06 19:20:00,
2013-02-06 12:25:00,35.8,15.5,29.85,North,0,0.0,0.0,43,0.00,,SKC,0.00,VWS V13.00,2013-02-06 19:25:00,
2013-02-06 12:30:00,36.0,15.1,29.82,North,0,0.0,0.0,42,0.00,,SKC,0.00,VWS V13.00,2013-02-06 19:30:00,
2013-02-06 12:35:00,36.0,15.1,29.82,North,0,0.0,0.0,42,0.00,,SKC,0.00,VWS V13.00,2013-02-06 19:35:00,
2013-02-06 12:40:00,36.1,15.3,29.82,North,0,0.0,0.0,42,0.00,,SKC,0.00,VWS V13.00,2013-02-06 19:40:00,
2013-02-06 12:46:00,36.3,15.4,29.82,North,0,0.0,0.0,42,0.00,,SKC,0.00,VWS V13.00,2013-02-06 19:46:00,
2013-02-06 12:51:00,36.3,15.4,29.82,North,0,0.0,0.0,42,0.00,,SKC,0.00,VWS V13.00,2013-02-06 19:51:00,
2013-02-06 12:56:00,36.3,15.4,29.82,North,0,0.0,0.0,42,0.00,,SKC,0.00,VWS V13.00,2013-02-06 19:56:00,
2013-02-06 13:01:00,36.7,15.2,29.82,North,0,0.0,0.0,41,0.00,,SKC,0.00,VWS V13.00,2013-02-06 20:01:00,
2013-02-06 13:06:00,37.0,16.1,29.82,North,0,0.0,0.0,42,0.00,,SKC,0.00,VWS V13.00,2013-02-06 20:06:00,
2013-02-06 13:11:00,37.8,16.2,29.82,North,0,0.0,0.0,41,0.00,,SKC,0.00,VWS V13.00,2013-02-06 20:11:00,
2013-02-06 13:16:00,37.9,16.4,29.82,North,0,0.0,0.0,41,0.00,,SKC,0.00,VWS V13.00,2013-02-06 20:16:00,
2013-02-06 13:21:00,37.6,16.0,29.82,North,0,0.0,0.0,41,0.00,,SKC,0.00,VWS V13.00,2013-02-06 20:21:00,
2013-02-06 13:26:00,36.9,15.4,29.82,North,0,0.0,0.0,41,0.00,,SKC,0.00,VWS V13.00,2013-02-06 20:26:00,
2013-02-06 13:31:00,36.7,15.2,29.82,North,0,0.0,0.0,41,0.00,,SKC,0.00,VWS V13.00,2013-02-06 20:31:00,
2013-02-06 13:36:00,36.3,14.9,29.82,North,0,0.0,0.0,41,0.00,,SKC,0.00,VWS V13.00,2013-02-06 20:36:00,
2013-02-06 13:41:00,36.1,14.7,29.82,North,0,0.0,0.0,41,0.00,,SKC,0.00,VWS V13.00,2013-02-06 20:41:00,
2013-02-06 13:46:00,35.8,14.4,29.82,North,0,0.0,0.0,41,0.00,,SKC,0.00,VWS V13.00,2013-02-06 20:46:00,
2013-02-06 13:51:00,35.8,14.4,29.82,North,0,0.0,0.0,41,0.00,,SKC,0.00,VWS V13.00,2013-02-06 20:51:00,
2013-02-06 13:56:00,35.8,14.9,29.82,North,0,0.0,0.0,42,0.00,,SKC,0.00,VWS V13.00,2013-02-06 20:56:00,
2013-02-06 14:01:00,36.0,15.1,29.82,North,0,0.0,0.0,42,0.00,,SKC,0.00,VWS V13.00,2013-02-06 21:01:00,
2013-02-06 14:06:00,35.8,14.9,29.82,North,0,0.0,0.0,42,0.00,,SKC,0.00,VWS V13.00,2013-02-06 21:06:00,
2013-02-06 14:11:00,35.8,14.9,29.82,North,0,0.0,0.0,42,0.00,,SKC,0.00,VWS V13.00,2013-02-06 21:11:00,
2013-02-06 14:16:00,35.8,14.9,29.82,North,0,0.0,0.0,42,0.00,,SKC,0.00,VWS V13.00,2013-02-06 21:16:00,
2013-02-06 14:21:00,35.8,14.9,29.82,North,0,0.0,0.0,42,0.00,,SKC,0.00,VWS V13.00,2013-02-06 21:21:00,
2013-02-06 14:26:00,35.6,15.3,29.82,North,0,0.0,0.0,43,0.00,,SKC,0.00,VWS V13.00,2013-02-06 21:26:00,
2013-02-06 14:32:00,35.6,14.8,29.82,North,0,0.0,0.0,42,0.00,,SKC,0.00,VWS V13.00,2013-02-06 21:32:00,
2013-02-06 14:37:00,35.4,15.2,29.82,North,0,0.0,0.0,43,0.00,,SKC,0.00,VWS V13.00,2013-02-06 21:37:00,
2013-02-06 14:42:00,35.1,14.8,29.85,North,0,0.0,0.0,43,0.00,,SKC,0.00,VWS V13.00,2013-02-06 21:42:00,
2013-02-06 14:47:00,35.1,14.8,29.85,North,0,0.0,0.0,43,0.00,,SKC,0.00,VWS V13.00,2013-02-06 21:47:00,
2013-02-06 14:52:00,34.7,15.0,29.85,North,0,0.0,0.0,44,0.00,,SKC,0.00,VWS V13.00,2013-02-06 21:52:00,
2013-02-06 14:57:00,34.5,15.4,29.85,North,0,0.0,0.0,45,0.00,,SKC,0.00,VWS V13.00,2013-02-06 21:57:00,
2013-02-06 15:02:00,34.3,15.2,29.85,North,0,0.0,0.0,45,0.00,,SKC,0.00,VWS V13.00,2013-02-06 22:02:00,
2013-02-06 15:07:00,34.2,15.6,29.85,North,0,0.0,0.0,46,0.00,,SKC,0.00,VWS V13.00,2013-02-06 22:07:00,
2013-02-06 15:12:00,34.0,15.9,29.85,North,0,0.0,0.0,47,0.00,,SKC,0.00,VWS V13.00,2013-02-06 22:12:00,
2013-02-06 15:17:00,33.8,15.7,29.85,North,0,0.0,0.0,47,0.00,,SKC,0.00,VWS V13.00,2013-02-06 22:17:00,
2013-02-06 15:22:00,33.8,15.7,29.85,North,0,0.0,0.0,47,0.00,,SKC,0.00,VWS V13.00,2013-02-06 22:22:00,
2013-02-06 15:27:00,33.6,15.6,29.85,North,0,0.0,0.0,47,0.00,,SKC,0.00,VWS V13.00,2013-02-06 22:27:00,
2013-02-06 15:32:00,33.6,15.6,29.85,North,0,0.0,0.0,47,0.00,,SKC,0.00,VWS V13.00,2013-02-06 22:32:00,
2013-02-06 15:37:00,33.6,15.6,29.85,North,0,0.0,0.0,47,0.00,,SKC,0.00,VWS V13.00,2013-02-06 22:37:00,
2013-02-06 15:42:00,33.4,15.9,29.85,North,0,0.0,0.0,48,0.00,,SKC,0.00,VWS V13.00,2013-02-06 22:42:00,
2013-02-06 15:47:00,33.3,16.2,29.85,North,0,0.0,0.0,49,0.00,,SKC,0.00,VWS V13.00,2013-02-06 22:47:00,
2013-02-06 15:52:00,33.1,16.0,29.85,North,0,0.0,0.0,49,0.00,,SKC,0.00,VWS V13.00,2013-02-06 22:52:00,
2013-02-06 15:57:00,32.9,16.3,29.85,North,0,0.0,0.0,50,0.00,,SKC,0.00,VWS V13.00,2013-02-06 22:57:00,
2013-02-06 16:02:00,32.9,16.3,29.85,North,0,0.0,0.0,50,0.00,,SKC,0.00,VWS V13.00,2013-02-06 23:02:00,
2013-02-06 16:07:00,32.7,16.1,29.85,North,0,0.0,0.0,50,0.00,,SKC,0.00,VWS V13.00,2013-02-06 23:07:00,
2013-02-06 16:12:00,32.7,16.1,29.85,North,0,0.0,0.0,50,0.00,,SKC,0.00,VWS V13.00,2013-02-06 23:12:00,
2013-02-06 16:17:00,32.5,16.0,29.85,North,0,0.0,0.0,50,0.00,,SKC,0.00,VWS V13.00,2013-02-06 23:17:00,
2013-02-06 16:22:00,32.5,16.0,29.85,North,0,0.0,0.0,50,0.00,,SKC,0.00,VWS V13.00,2013-02-06 23:22:00,
2013-02-06 16:28:00,32.2,16.1,29.85,North,0,0.0,0.0,51,0.00,,SKC,0.00,VWS V13.00,2013-02-06 23:28:00,
2013-02-06 16:33:00,32.0,15.9,29.85,North,0,0.0,0.0,51,0.00,,SKC,0.00,VWS V13.00,2013-02-06 23:33:00,
2013-02-06 16:38:00,31.8,15.8,29.85,North,0,0.0,0.0,51,0.00,,SKC,0.00,VWS V13.00,2013-02-06 23:38:00,
2013-02-06 16:43:00,31.6,15.6,29.85,North,0,0.0,0.0,51,0.00,,SKC,0.00,VWS V13.00,2013-02-06 23:43:00,
2013-02-06 16:48:00,31.5,15.9,29.85,North,0,0.0,0.0,52,0.00,,SKC,0.00,VWS V13.00,2013-02-06 23:48:00,
2013-02-06 16:53:00,31.5,15.9,29.85,North,0,0.0,0.0,52,0.00,,SKC,0.00,VWS V13.00,2013-02-06 23:53:00,
2013-02-06 16:58:00,31.3,15.7,29.88,North,0,0.0,0.0,52,0.00,,SKC,0.00,VWS V13.00,2013-02-06 23:58:00,
2013-02-06 17:03:00,31.5,15.9,29.88,North,0,0.0,0.0,52,0.00,,SKC,0.00,VWS V13.00,2013-02-07 00:03:00,
2013-02-06 17:08:00,31.5,15.9,29.88,North,0,0.0,0.0,52,0.00,,SKC,0.00,VWS V13.00,2013-02-07 00:08:00,
2013-02-06 17:13:00,31.5,15.9,29.88,North,0,0.0,0.0,52,0.00,,SKC,0.00,VWS V13.00,2013-02-07 00:13:00,
2013-02-06 17:18:00,31.6,16.0,29.88,North,0,0.0,0.0,52,0.00,,SKC,0.00,VWS V13.00,2013-02-07 00:18:00,
2013-02-06 17:23:00,31.6,16.0,29.88,North,0,0.0,0.0,52,0.00,,SKC,0.00,VWS V13.00,2013-02-07 00:23:00,
2013-02-06 17:28:00,31.6,16.0,29.88,North,0,0.0,0.0,52,0.00,,SKC,0.00,VWS V13.00,2013-02-07 00:28:00,
2013-02-06 17:33:00,31.6,15.6,29.88,North,0,0.0,0.0,51,0.00,,SKC,0.00,VWS V13.00,2013-02-07 00:33:00,
2013-02-06 17:38:00,31.6,15.6,29.88,North,0,0.0,0.0,51,0.00,,SKC,0.00,VWS V13.00,2013-02-07 00:38:00,
2013-02-06 17:43:00,31.5,15.4,29.88,North,0,0.0,0.0,51,0.00,,SKC,0.00,VWS V13.00,2013-02-07 00:43:00,
2013-02-06 17:48:00,31.3,15.3,29.88,North,0,0.0,0.0,51,0.00,,SKC,0.00,VWS V13.00,2013-02-07 00:48:00,
2013-02-06 17:53:00,30.9,14.9,29.88,North,0,0.0,0.0,51,0.00,,SKC,0.00,VWS V13.00,2013-02-07 00:53:00,
2013-02-06 17:58:00,30.6,14.6,29.88,North,0,0.0,0.0,51,0.00,,SKC,0.00,VWS V13.00,2013-02-07 00:58:00,
2013-02-06 18:03:00,30.0,14.5,29.88,North,0,0.0,0.0,52,0.00,,SKC,0.00,VWS V13.00,2013-02-07 01:03:00,
2013-02-06 18:08:00,29.5,14.0,29.88,North,0,0.0,0.0,52,0.00,,SKC,0.00,VWS V13.00,2013-02-07 01:08:00,
2013-02-06 18:13:00,29.1,13.7,29.88,North,0,0.0,0.0,52,0.00,,SKC,0.00,VWS V13.00,2013-02-07 01:13:00,
2013-02-06 18:18:00,28.9,14.0,29.88,North,0,0.0,0.0,53,0.00,,SKC,0.00,VWS V13.00,2013-02-07 01:18:00,
2013-02-06 18:23:00,28.6,13.6,29.88,North,0,0.0,0.0,53,0.00,,SKC,0.00,VWS V13.00,2013-02-07 01:23:00,
2013-02-06 18:28:00,28.4,13.9,29.88,North,0,0.0,0.0,54,0.00,,SKC,0.00,VWS V13.00,2013-02-07 01:28:00,
2013-02-06 18:33:00,28.2,13.7,29.88,North,0,0.0,0.0,54,0.00,,SKC,0.00,VWS V13.00,2013-02-07 01:33:00,
2013-02-06 18:38:00,27.9,13.4,29.88,North,0,0.0,0.0,54,0.00,,SKC,0.00,VWS V13.00,2013-02-07 01:38:00,
2013-02-06 18:43:00,27.9,13.8,29.91,North,0,0.0,0.0,55,0.00,,SKC,0.00,VWS V13.00,2013-02-07 01:43:00,
2013-02-06 18:49:00,27.5,13.5,29.91,North,0,0.0,0.0,55,0.00,,SKC,0.00,VWS V13.00,2013-02-07 01:49:00,
2013-02-06 18:54:00,27.1,13.5,29.91,North,0,0.0,0.0,56,0.00,,SKC,0.00,VWS V13.00,2013-02-07 01:54:00,
2013-02-06 18:59:00,27.3,14.1,29.91,North,0,0.0,0.0,57,0.00,,SKC,0.00,VWS V13.00,2013-02-07 01:59:00,
2013-02-06 19:04:00,27.5,14.3,29.91,North,0,0.0,0.0,57,0.00,,SKC,0.00,VWS V13.00,2013-02-07 02:04:00,
2013-02-06 19:09:00,27.3,14.1,29.91,North,0,0.0,0.0,57,0.00,,SKC,0.00,VWS V13.00,2013-02-07 02:09:00,
2013-02-06 19:14:00,27.0,13.4,29.91,North,0,0.0,0.0,56,0.00,,SKC,0.00,VWS V13.00,2013-02-07 02:14:00,
2013-02-06 19:19:00,27.3,14.1,29.91,North,0,0.0,0.0,57,0.00,,SKC,0.00,VWS V13.00,2013-02-07 02:19:00,
2013-02-06 19:24:00,27.7,14.4,29.91,North,0,0.0,0.0,57,0.00,,SKC,0.00,VWS V13.00,2013-02-07 02:24:00,
2013-02-06 19:29:00,27.7,14.4,29.91,North,0,0.0,0.0,57,0.00,,SKC,0.00,VWS V13.00,2013-02-07 02:29:00,
2013-02-06 19:34:00,27.7,14.4,29.91,North,0,0.0,0.0,57,0.00,,SKC,0.00,VWS V13.00,2013-02-07 02:34:00,
2013-02-06 19:39:00,27.7,14.4,29.91,North,0,0.0,0.0,57,0.00,,SKC,0.00,VWS V13.00,2013-02-07 02:39:00,
2013-02-06 19:44:00,27.3,14.1,29.91,North,0,0.0,0.0,57,0.00,,SKC,0.00,VWS V13.00,2013-02-07 02:44:00,
2013-02-06 19:49:00,27.0,13.8,29.91,North,0,0.0,0.0,57,0.00,,SKC,0.00,VWS V13.00,2013-02-07 02:49:00,
2013-02-06 19:54:00,26.4,13.7,29.91,North,0,0.0,0.0,58,0.00,,SKC,0.00,VWS V13.00,2013-02-07 02:54:00,
2013-02-06 19:59:00,26.1,13.3,29.91,North,0,0.0,0.0,58,0.00,,SKC,0.00,VWS V13.00,2013-02-07 02:59:00,
2013-02-06 20:04:00,25.3,12.6,29.91,North,0,0.0,0.0,58,0.00,,SKC,0.00,VWS V13.00,2013-02-07 03:04:00,
2013-02-06 20:09:00,24.8,12.5,29.91,North,0,0.0,0.0,59,0.00,,SKC,0.00,VWS V13.00,2013-02-07 03:09:00,
2013-02-06 20:14:00,24.4,12.6,29.91,North,0,0.0,0.0,60,0.00,,SKC,0.00,VWS V13.00,2013-02-07 03:14:00,
2013-02-06 20:19:00,24.1,12.6,29.91,North,0,0.0,0.0,61,0.00,,SKC,0.00,VWS V13.00,2013-02-07 03:19:00,
2013-02-06 20:24:00,23.7,13.0,29.91,North,0,0.0,0.0,63,0.00,,SKC,0.00,VWS V13.00,2013-02-07 03:24:00,
2013-02-06 20:29:00,23.4,12.6,29.91,North,0,0.0,0.0,63,0.00,,SKC,0.00,VWS V13.00,2013-02-07 03:29:00,
2013-02-06 20:34:00,23.2,12.8,29.91,North,0,0.0,0.0,64,0.00,,SKC,0.00,VWS V13.00,2013-02-07 03:34:00,
2013-02-06 20:39:00,23.0,12.6,29.91,North,0,0.0,0.0,64,0.00,,SKC,0.00,VWS V13.00,2013-02-07 03:39:00,
2013-02-06 20:44:00,22.8,12.5,29.91,North,0,0.0,0.0,64,0.00,,SKC,0.00,VWS V13.00,2013-02-07 03:44:00,
2013-02-06 20:49:00,23.0,12.6,29.91,North,0,0.0,0.0,64,0.00,,SKC,0.00,VWS V13.00,2013-02-07 03:49:00,
2013-02-06 20:55:00,23.0,12.6,29.91,North,0,0.0,0.0,64,0.00,,SKC,0.00,VWS V13.00,2013-02-07 03:55:00,
2013-02-06 21:00:00,23.4,12.6,29.91,North,0,0.0,0.0,63,0.00,,SKC,0.00,VWS V13.00,2013-02-07 04:00:00,
2013-02-06 21:05:00,23.5,12.8,29.91,North,0,0.0,0.0,63,0.00,,SKC,0.00,VWS V13.00,2013-02-07 04:05:00,
2013-02-06 21:10:00,23.5,12.4,29.91,North,0,0.0,0.0,62,0.00,,SKC,0.00,VWS V13.00,2013-02-07 04:10:00,
2013-02-06 21:15:00,23.4,11.5,29.91,North,0,0.0,0.0,60,0.00,,SKC,0.00,VWS V13.00,2013-02-07 04:15:00,
2013-02-06 21:20:00,23.4,11.5,29.91,North,0,0.0,0.0,60,0.00,,SKC,0.00,VWS V13.00,2013-02-07 04:20:00,
2013-02-06 21:25:00,23.2,11.0,29.91,North,0,0.0,0.0,59,0.00,,SKC,0.00,VWS V13.00,2013-02-07 04:25:00,
2013-02-06 21:30:00,23.2,11.0,29.91,North,0,0.0,0.0,59,0.00,,SKC,0.00,VWS V13.00,2013-02-07 04:30:00,
2013-02-06 21:35:00,22.8,10.3,29.91,North,0,0.0,0.0,58,0.00,,SKC,0.00,VWS V13.00,2013-02-07 04:35:00,
2013-02-06 21:40:00,22.6,10.1,29.91,North,0,0.0,0.0,58,0.00,,SKC,0.00,VWS V13.00,2013-02-07 04:40:00,
2013-02-06 21:45:00,22.1,9.6,29.91,North,0,0.0,0.0,58,0.00,,SKC,0.00,VWS V13.00,2013-02-07 04:45:00,
2013-02-06 21:50:00,21.9,9.4,29.91,North,0,0.0,0.0,58,0.00,,SKC,0.00,VWS V13.00,2013-02-07 04:50:00,
2013-02-06 21:55:00,21.6,9.5,29.91,North,0,0.0,0.0,59,0.00,,SKC,0.00,VWS V13.00,2013-02-07 04:55:00,
2013-02-06 22:00:00,21.4,9.3,29.91,North,0,0.0,0.0,59,0.00,,SKC,0.00,VWS V13.00,2013-02-07 05:00:00,
2013-02-06 22:01:00,21.4,9.3,29.91,North,0,0.0,0.0,59,0.00,,SKC,0.00,VWS V13.00,2013-02-07 05:01:00,
2013-02-06 22:06:00,21.2,9.5,29.91,North,0,0.0,0.0,60,0.00,,SKC,0.00,VWS V13.00,2013-02-07 05:06:00,
2013-02-06 22:11:00,20.8,9.2,29.91,North,0,0.0,0.0,60,0.00,,SKC,0.00,VWS V13.00,2013-02-07 05:11:00,
2013-02-06 22:16:00,20.7,9.4,29.91,North,0,0.0,0.0,61,0.00,,SKC,0.00,VWS V13.00,2013-02-07 05:16:00,
2013-02-06 22:21:00,20.5,9.2,29.91,North,0,0.0,0.0,61,0.00,,SKC,0.00,VWS V13.00,2013-02-07 05:21:00,
2013-02-06 22:26:00,20.3,9.0,29.91,North,0,0.0,0.0,61,0.00,,SKC,0.00,VWS V13.00,2013-02-07 05:26:00,
2013-02-06 22:31:00,20.1,8.8,29.91,North,0,0.0,0.0,61,0.00,,SKC,0.00,VWS V13.00,2013-02-07 05:31:00,
2013-02-06 22:36:00,19.9,9.0,29.91,North,0,0.0,0.0,62,0.00,,SKC,0.00,VWS V13.00,2013-02-07 05:36:00,
2013-02-06 22:41:00,19.8,9.2,29.91,North,0,0.0,0.0,63,0.00,,SKC,0.00,VWS V13.00,2013-02-07 05:41:00,
2013-02-06 22:46:00,19.4,9.2,29.91,North,0,0.0,0.0,64,0.00,,SKC,0.00,VWS V13.00,2013-02-07 05:46:00,
2013-02-06 22:51:00,19.4,9.2,29.91,North,0,0.0,0.0,64,0.00,,SKC,0.00,VWS V13.00,2013-02-07 05:51:00,
2013-02-06 22:56:00,19.6,9.4,29.91,North,0,0.0,0.0,64,0.00,,SKC,0.00,VWS V13.00,2013-02-07 05:56:00,
2013-02-06 23:02:00,19.4,9.2,29.91,North,0,0.0,0.0,64,0.00,,SKC,0.00,VWS V13.00,2013-02-07 06:02:00,
2013-02-06 23:07:00,19.4,9.2,29.91,North,0,0.0,0.0,64,0.00,,SKC,0.00,VWS V13.00,2013-02-07 06:07:00,
2013-02-06 23:12:00,19.2,8.7,29.91,North,0,0.0,0.0,63,0.00,,SKC,0.00,VWS V13.00,2013-02-07 06:12:00,
2013-02-06 23:17:00,19.2,8.7,29.91,North,0,0.0,0.0,63,0.00,,SKC,0.00,VWS V13.00,2013-02-07 06:17:00,
2013-02-06 23:22:00,18.9,8.4,29.91,North,0,0.0,0.0,63,0.00,,SKC,0.00,VWS V13.00,2013-02-07 06:22:00,
2013-02-06 23:27:00,18.5,8.0,29.91,North,0,0.0,0.0,63,0.00,,SKC,0.00,VWS V13.00,2013-02-07 06:27:00,
2013-02-06 23:32:00,18.3,8.2,29.91,North,0,0.0,0.0,64,0.00,,SKC,0.00,VWS V13.00,2013-02-07 06:32:00,
2013-02-06 23:37:00,18.1,8.0,29.91,North,0,0.0,0.0,64,0.00,,SKC,0.00,VWS V13.00,2013-02-07 06:37:00,
2013-02-06 23:42:00,18.1,8.4,29.91,North,0,0.0,0.0,65,0.00,,SKC,0.00,VWS V13.00,2013-02-07 06:42:00,
2013-02-06 23:47:00,18.1,8.4,29.91,North,0,0.0,0.0,65,0.00,,SKC,0.00,VWS V13.00,2013-02-07 06:47:00,
2013-02-06 23:52:00,18.1,8.0,29.91,North,0,0.0,0.0,64,0.00,,SKC,0.00,VWS V13.00,2013-02-07 06:52:00,
2013-02-06 23:57:00,18.1,8.0,29.91,North,0,0.0,0.0,64,0.00,,SKC,0.00,VWS V13.00,2013-02-07 06:57:00,